FW8858 Weather Reports


time (UTC)temp
C
wind
direction
speed
KPH
gust
KPH
rain 1hr
cm
rain 24hr
cm
rain mn
cm
humidity
%
barometer
mb
20260510192524 16 0 0.0 3.2 0.08 0.74 0.08 88 1012.5
20260510192025 16 84 1.6 4.8 0.08 0.74 0.08 85 1012.3
20260510191550 16 85 3.2 4.8 0.08 0.74 0.08 83 1012.1
20260510191023 17 0 0.0 3.2 0.08 0.74 0.08 78 1012.3
20260510190522 17 258 1.6 3.2 0.05 0.71 0.05 73 1012.1
20260510190055 18 264 1.6 4.8 0.05 0.71 0.05 68 1012.1
20260510185524 19 317 1.6 4.8 0.00 0.69 0.00 62 1012.0
20260510185022 19 290 1.6 4.8 0.00 0.69 0.00 60 1011.9
20260510184535 20 327 1.6 4.8 0.00 0.69 0.00 59 1011.7
20260510184025 20 315 1.6 4.8 0.00 0.69 0.00 60 1011.8
20260510183527 20 288 1.6 14.5 0.00 0.69 0.00 58 1011.8
20260510183035 20 329 1.6 16.1 0.00 0.69 0.00 59 1011.9
20260510182525 20 318 6.4 16.1 0.00 0.69 0.00 57 1011.9
20260510182024 20 285 6.4 16.1 0.00 0.69 0.00 57 1012.0
20260510181547 20 305 3.2 6.4 0.00 0.69 0.00 57 1011.8
20260510181024 20 288 1.6 6.4 0.00 0.69 0.00 59 1011.9
20260510180525 20 312 3.2 11.3 0.00 0.69 0.00 59 1011.8
20260510180059 20 201 4.8 11.3 0.00 0.69 0.00 59 1011.9
20260510175524 20 292 6.4 11.3 0.00 0.69 0.00 58 1011.8
20260510175026 20 294 1.6 6.4 0.00 0.69 0.00 60 1011.8
20260510174541 20 309 3.2 11.3 0.00 0.69 0.00 61 1011.7
20260510174025 20 309 4.8 12.9 0.00 0.69 0.00 61 1011.8
20260510173528 20 279 3.2 12.9 0.00 0.69 0.00 60 1011.7
20260510173045 20 299 6.4 12.9 0.00 0.69 0.00 59 1012.1
20260510172527 20 9 3.2 11.3 0.00 0.69 0.00 61 1012.0
20260510172025 19 94 1.6 12.9 0.00 0.69 0.00 63 1012.0
20260510171552 20 270 4.8 12.9 0.00 0.69 0.00 62 1011.9
20260510171024 20 259 3.2 11.3 0.00 0.69 0.00 65 1011.8
20260510170529 19 343 3.2 11.3 0.00 0.69 0.00 66 1011.7
20260510170047 18 66 1.6 6.4 0.00 0.69 0.00 66 1011.7
20260510165524 18 241 3.2 6.4 0.00 0.69 0.00 67 1011.8
20260510165026 18 306 3.2 6.4 0.00 0.69 0.00 66 1011.7
20260510164553 18 325 3.2 4.8 0.00 0.69 0.00 69 1011.8
20260510164025 18 259 1.6 9.7 0.00 0.69 0.00 69 1012.0
20260510163525 18 28 0.0 9.7 0.00 0.69 0.00 69 1012.1
20260510163057 18 270 3.2 9.7 0.00 0.69 0.00 70 1012.1
20260510162525 18 205 1.6 6.4 0.00 0.69 0.00 68 1012.0
20260510162028 18 320 3.2 6.4 0.00 0.69 0.00 69 1011.9
20260510161545 18 113 1.6 11.3 0.00 0.69 0.00 69 1012.0
20260510161025 18 274 3.2 11.3 0.00 0.69 0.00 69 1012.1
20260510160524 19 286 3.2 8.0 0.00 0.69 0.00 68 1012.1
20260510160044 18 324 1.6 6.4 0.00 0.69 0.00 70 1012.1
20260510155524 18 165 3.2 6.4 0.00 0.69 0.00 72 1012.1
20260510155024 18 321 1.6 6.4 0.00 0.69 0.00 72 1011.9
20260510154542 18 263 1.6 6.4 0.00 0.69 0.00 68 1012.0
20260510154025 18 63 3.2 8.0 0.00 0.69 0.00 70 1012.0
20260510153524 17 143 1.6 8.0 0.00 0.69 0.00 75 1012.1
20260510153057 18 284 3.2 6.4 0.00 0.69 0.00 69 1012.1
20260510152525 18 304 1.6 4.8 0.00 0.69 0.00 71 1012.3
20260510152025 17 149 1.6 4.8 0.00 0.69 0.00 76 1012.2
20260510151539 17 224 1.6 4.8 0.00 0.69 0.00 75 1012.3
20260510151026 17 294 1.6 4.8 0.00 0.69 0.00 76 1012.3
20260510150526 17 109 0.0 4.8 0.00 0.69 0.00 78 1012.2
20260510150053 17 131 1.6 4.8 0.00 0.69 0.00 75 1012.1
20260510145524 17 101 1.6 4.8 0.00 0.69 0.00 76 1012.2
20260510145024 16 117 0.0 4.8 0.00 0.69 0.00 77 1012.3
20260510144546 16 279 1.6 4.8 0.00 0.69 0.00 78 1012.2
20260510144028 17 309 1.6 4.8 0.00 0.69 0.00 78 1012.3
20260510143525 16 310 0.0 3.2 0.00 0.69 0.00 79 1012.1
20260510143056 16 299 0.0 3.2 0.00 0.69 0.00 80 1012.1
20260510142528 16 346 0.0 3.2 0.00 0.69 0.00 83 1012.1
20260510142024 15 263 1.6 3.2 0.00 0.69 0.00 82 1012.0
20260510141541 15 26 0.0 4.8 0.00 0.69 0.00 88 1011.9
20260510141025 15 215 1.6 4.8 0.00 0.69 0.00 86 1012.1
20260510140525 14 80 1.6 4.8 0.00 0.69 0.00 87 1012.1
20260510140039 13 95 1.6 3.2 0.00 0.69 0.00 90 1012.2
20260510135528 13 69 1.6 4.8 0.00 0.71 0.00 90 1012.2
20260510135027 13 0 0.0 4.8 0.00 0.71 0.00 92 1012.2
20260510134543 12 0 1.6 3.2 0.00 0.71 0.00 90 1012.3
20260510134024 12 302 1.6 3.2 0.00 0.71 0.00 92 1012.2
20260510133525 12 0 0.0 3.2 0.00 0.71 0.00 93 1012.2
20260510133045 12 317 0.0 3.2 0.00 0.71 0.00 94 1012.2
20260510132524 12 280 0.0 3.2 0.00 0.71 0.00 94 1012.1
20260510132026 12 126 0.0 3.2 0.00 0.71 0.00 95 1012.0
20260510131551 11 119 0.0 3.2 0.00 0.71 0.00 95 1012.0
20260510131024 11 0 0.0 3.2 0.00 0.71 0.00 95 1012.1
20260510130524 11 5 0.0 3.2 0.00 0.71 0.00 95 1012.0
20260510130042 11 333 0.0 3.2 0.00 0.71 0.00 95 1012.1
20260510125524 11 331 0.0 3.2 0.00 0.71 0.00 95 1012.1
20260510125024 11 323 0.0 3.2 0.00 0.71 0.00 95 1012.1
20260510124542 11 0 0.0 3.2 0.00 0.71 0.00 95 1012.0
20260510124029 11 323 0.0 3.2 0.00 0.71 0.00 95 1012.1
20260510123526 11 321 0.0 3.2 0.00 0.71 0.00 95 1012.0
20260510123045 11 0 0.0 3.2 0.00 0.71 0.00 95 1012.0
20260510122524 11 0 0.0 0.0 0.00 0.71 0.00 95 1011.8
20260510122024 11 0 0.0 3.2 0.00 0.71 0.00 96 1011.8
20260510121545 11 0 0.0 3.2 0.00 0.71 0.00 96 1011.7
20260510121026 11 0 0.0 3.2 0.00 0.71 0.00 96 1011.7
20260510120524 11 0 0.0 3.2 0.00 0.71 0.00 96 1011.6
20260510120043 11 0 0.0 3.2 0.00 0.71 0.00 96 1011.7
20260510115524 11 0 0.0 3.2 0.00 0.71 0.00 96 1011.7
20260510115024 11 94 0.0 3.2 0.00 0.71 0.00 96 1011.6
20260510114543 11 118 0.0 3.2 0.00 0.71 0.00 96 1011.5
20260510114026 10 118 0.0 3.2 0.00 0.71 0.00 96 1011.5
20260510113525 10 0 0.0 3.2 0.00 0.71 0.00 96 1011.5
20260510113039 10 0 0.0 3.2 0.00 0.71 0.00 96 1011.4
20260510112528 10 0 0.0 3.2 0.00 0.71 0.00 96 1011.4
20260510112026 10 5 0.0 3.2 0.00 0.71 0.00 96 1011.4
20260510111536 10 0 0.0 3.2 0.00 0.71 0.00 96 1011.4
20260510111024 10 0 0.0 3.2 0.00 0.71 0.00 96 1011.3
20260510110524 10 88 0.0 3.2 0.00 0.71 0.00 96 1011.2
20260510110037 10 88 0.0 3.2 0.00 0.71 0.00 96 1011.1
20260510105525 10 88 0.0 3.2 0.00 0.71 0.00 96 1011.2
20260510105026 10 0 0.0 1.6 0.00 0.71 0.00 96 1011.4
20260510104548 10 0 0.0 1.6 0.00 0.71 0.00 96 1011.3
20260510104026 10 0 0.0 3.2 0.00 0.71 0.00 96 1011.4
20260510103524 10 0 0.0 3.2 0.00 0.71 0.00 96 1011.2
20260510103042 10 87 0.0 3.2 0.00 0.71 0.00 96 1011.1
20260510102525 10 0 0.0 3.2 0.00 0.71 0.00 96 1011.1
20260510102025 10 132 0.0 3.2 0.00 0.71 0.00 96 1011.0
20260510101542 10 140 0.0 3.2 0.00 0.71 0.00 96 1011.3
20260510101025 10 0 0.0 3.2 0.00 0.71 0.00 96 1011.1
20260510100530 10 0 0.0 3.2 0.00 0.71 0.00 96 1011.0
20260510095524 10 0 0.0 3.2 0.00 0.71 0.00 96 1011.0
20260510095029 10 0 0.0 3.2 0.00 0.71 0.00 96 1011.0
20260510094550 10 113 0.0 3.2 0.00 0.71 0.00 96 1010.9
20260510094024 10 0 0.0 9.7 0.00 0.71 0.00 96 1010.7
20260510093522 10 114 1.6 9.7 0.00 0.71 0.00 96 1010.8
20260510093041 10 60 0.0 3.2 0.00 0.71 0.00 96 1010.8
20260510092525 10 242 0.0 3.2 0.00 0.71 0.00 96 1010.7
20260510092025 10 104 0.0 3.2 0.00 0.71 0.00 96 1010.8
20260510091542 10 103 0.0 3.2 0.00 0.71 0.00 96 1010.8
20260510091026 10 104 0.0 3.2 0.00 0.71 0.00 96 1011.0
20260510090525 10 115 0.0 3.2 0.00 0.71 0.00 96 1010.9
20260510090047 10 178 0.0 3.2 0.00 0.71 0.00 96 1011.0
20260510085524 10 135 0.0 3.2 0.00 0.74 0.00 96 1011.0
20260510085027 10 136 0.0 3.2 0.00 0.74 0.00 96 1010.9
20260510084554 10 107 0.0 3.2 0.00 0.74 0.00 96 1011.0
20260510084028 10 0 0.0 3.2 0.00 0.74 0.00 96 1010.9
20260510083525 10 107 0.0 3.2 0.00 0.74 0.00 96 1010.9
20260510083042 10 113 1.6 3.2 0.00 0.74 0.00 96 1011.0
20260510082524 10 96 1.6 3.2 0.00 0.74 0.00 96 1011.1
20260510082024 10 96 0.0 3.2 0.00 0.74 0.00 96 1011.2
20260510081551 10 96 0.0 3.2 0.00 0.74 0.00 96 1011.1
20260510081024 10 92 0.0 1.6 0.00 0.74 0.00 96 1011.1
20260510080526 10 0 0.0 3.2 0.00 0.74 0.00 96 1011.3
20260510080040 10 0 0.0 3.2 0.00 0.74 0.00 96 1011.2
20260510075525 10 0 0.0 1.6 0.00 0.76 0.00 96 1011.3
20260510075024 10 83 1.6 1.6 0.00 0.76 0.00 96 1011.1
20260510074545 10 61 1.6 3.2 0.00 0.76 0.00 96 1011.3
20260510074025 10 61 0.0 3.2 0.00 0.76 0.00 96 1011.2
20260510073523 10 61 1.6 3.2 0.00 0.76 0.00 96 1011.4
20260510073039 10 0 0.0 3.2 0.00 0.76 0.00 96 1011.3
20260510072526 10 52 0.0 3.2 0.00 0.76 0.00 96 1011.3
20260510072027 10 0 0.0 3.2 0.00 0.76 0.00 96 1011.1
20260510071546 10 57 0.0 3.2 0.00 0.76 0.00 96 1010.8
20260510071024 10 57 0.0 3.2 0.00 0.76 0.00 96 1010.8
20260510070526 10 0 0.0 3.2 0.00 0.76 0.00 96 1010.8
20260510070040 10 0 0.0 3.2 0.00 0.76 0.00 96 1010.8
20260510065524 10 51 0.0 3.2 0.00 0.76 0.00 96 1010.7
20260510065025 10 46 0.0 3.2 0.00 0.76 0.00 96 1010.8
20260510064540 10 46 0.0 3.2 0.00 0.76 0.00 96 1010.9
20260510064024 10 46 0.0 3.2 0.00 0.76 0.00 96 1010.9
20260510063525 10 0 0.0 3.2 0.00 0.76 0.00 96 1010.9
20260510063037 10 46 0.0 3.2 0.00 0.76 0.00 96 1010.9
20260510062525 10 0 0.0 3.2 0.00 0.76 0.00 96 1011.1
20260510062026 10 46 0.0 3.2 0.00 0.76 0.00 96 1011.0
20260510061539 10 46 0.0 3.2 0.00 0.76 0.00 95 1011.1
20260510061028 10 0 0.0 0.0 0.00 0.76 0.00 95 1011.0
20260510060526 10 0 0.0 3.2 0.00 0.76 0.00 96 1010.9
20260510060035 10 0 0.0 3.2 0.00 0.76 0.00 95 1010.8
20260510055524 10 0 0.0 3.2 0.00 0.76 0.00 95 1010.8
20260510055024 10 0 0.0 3.2 0.00 0.76 0.00 95 1010.8
20260510054536 10 74 0.0 3.2 0.00 0.76 0.00 95 1010.7
20260510054025 10 75 0.0 3.2 0.00 0.76 0.00 95 1010.8
20260510053524 10 72 0.0 3.2 0.00 0.76 0.00 95 1010.7
20260510053041 10 74 0.0 3.2 0.00 0.76 0.00 95 1010.7
20260510052525 10 75 0.0 3.2 0.00 0.76 0.00 96 1010.8
20260510052025 10 77 0.0 3.2 0.00 0.76 0.00 96 1010.8
20260510051545 10 0 0.0 3.2 0.00 0.76 0.00 96 1010.8
20260510051024 10 69 0.0 3.2 0.00 0.76 0.00 96 1010.9
20260510050525 10 67 0.0 3.2 0.00 0.76 0.00 95 1010.9
20260510050041 10 67 0.0 1.6 0.00 0.76 0.00 95 1010.7
20260510045524 10 67 0.0 3.2 0.00 0.76 0.00 95 1010.7
20260510045024 10 54 0.0 3.2 0.00 0.76 0.00 95 1010.7
20260510044546 10 71 0.0 3.2 0.00 0.76 0.00 95 1010.8
20260510044024 10 0 0.0 3.2 0.00 0.76 0.00 95 1010.8
20260510043524 10 59 0.0 3.2 0.00 0.76 0.00 95 1010.9
20260510043048 10 31 0.0 3.2 0.00 0.76 0.00 96 1010.8
20260510042524 10 0 0.0 3.2 0.00 0.76 0.00 96 1010.9
20260510042025 10 10 0.0 0.0 0.00 0.76 0.00 96 1010.7
20260510041539 10 0 0.0 0.0 0.00 0.76 0.00 96 1010.7
20260510041024 10 0 0.0 0.0 0.00 0.76 0.00 96 1010.6
20260510040525 10 0 0.0 1.6 0.00 0.76 0.00 96 1010.6
20260510040045 10 0 0.0 3.2 0.00 0.76 0.00 96 1010.6
20260510035524 10 0 0.0 3.2 0.00 0.76 0.76 96 1010.6
20260510035025 10 96 0.0 0.0 0.00 0.76 0.76 96 1010.6
20260510034542 10 0 0.0 3.2 0.00 0.76 0.76 96 1010.6
20260510034026 10 0 0.0 3.2 0.00 0.76 0.76 96 1010.5
20260510033524 10 96 0.0 3.2 0.00 0.76 0.76 95 1010.5
20260510033100 10 0 0.0 3.2 0.00 0.76 0.76 96 1010.4
20260510032524 10 96 0.0 3.2 0.00 0.76 0.76 95 1010.6
20260510032025 10 0 0.0 3.2 0.00 0.76 0.76 96 1010.7
20260510031547 10 96 0.0 3.2 0.00 0.76 0.76 96 1010.7
20260510031025 10 0 0.0 1.6 0.00 0.76 0.76 96 1010.8
20260510030524 10 0 0.0 0.0 0.00 0.76 0.76 96 1010.9
20260510030045 10 0 0.0 0.0 0.00 0.76 0.76 96 1010.9
20260510025527 10 0 0.0 3.2 0.00 0.76 0.76 96 1010.9
20260510025024 10 0 0.0 3.2 0.00 0.76 0.76 95 1010.8
20260510024540 11 0 0.0 3.2 0.00 0.76 0.76 96 1010.7
20260510024024 10 0 0.0 0.0 0.00 0.76 0.76 95 1010.7
20260510023526 11 0 0.0 0.0 0.00 0.76 0.76 95 1010.9
20260510023036 10 0 0.0 0.0 0.00 0.76 0.76 95 1010.8
20260510022525 10 0 0.0 0.0 0.00 0.76 0.76 95 1010.8
20260510022025 10 0 0.0 3.2 0.00 0.76 0.76 95 1010.7
20260510021536 10 0 0.0 3.2 0.00 0.76 0.76 95 1010.7
20260510021024 11 96 0.0 3.2 0.00 0.76 0.76 95 1010.7
20260510020527 11 0 0.0 3.2 0.00 0.76 0.76 95 1010.6
20260510020047 11 96 0.0 3.2 0.00 0.76 0.76 95 1010.6
20260510015525 11 96 0.0 3.2 0.00 0.76 0.76 95 1010.7
20260510015024 11 0 0.0 3.2 0.00 0.76 0.76 95 1010.6
20260510014546 11 0 0.0 1.6 0.00 0.76 0.76 95 1010.4
20260510014024 11 0 0.0 1.6 0.00 0.76 0.76 95 1010.4
20260510013524 11 0 0.0 0.0 0.00 0.76 0.76 95 1010.5
20260510013039 11 0 0.0 3.2 0.00 0.76 0.76 95 1010.5
20260510012525 11 0 0.0 3.2 0.00 0.76 0.76 95 1010.4
20260510012028 11 0 0.0 3.2 0.00 0.76 0.76 95 1010.5
20260510011541 11 0 0.0 3.2 0.00 0.76 0.76 95 1010.4
20260510011024 11 96 1.6 3.2 0.00 0.76 0.76 95 1010.3
20260510010523 11 96 0.0 3.2 0.00 0.76 0.76 95 1010.4
20260510010045 11 0 0.0 3.2 0.00 0.76 0.76 95 1010.3
20260510005524 11 0 0.0 3.2 0.00 0.76 0.76 95 1010.1
20260510005027 11 96 0.0 3.2 0.00 0.76 0.76 95 1010.1
20260510004543 11 0 0.0 1.6 0.00 0.76 0.76 95 1009.9
20260510004025 11 0 0.0 3.2 0.00 0.76 0.76 95 1010.0
20260510003524 11 96 0.0 3.2 0.00 0.76 0.76 95 1010.0
20260510003043 11 0 0.0 3.2 0.00 0.76 0.76 95 1010.0
20260510002525 11 0 0.0 0.0 0.00 0.76 0.76 95 1009.9
20260510002024 11 0 0.0 0.0 0.00 0.76 0.76 95 1009.8
20260510001543 11 0 0.0 3.2 0.00 0.76 0.76 95 1009.8
20260510001025 11 0 0.0 3.2 0.00 0.76 0.76 95 1009.7
20260510000523 11 0 0.0 3.2 0.00 0.76 0.76 95 1009.7
20260510000057 11 0 0.0 3.2 0.00 0.76 0.76 95 1009.7
20260509235528 11 0 0.0 3.2 0.00 0.76 0.76 95 1009.7
20260509235024 11 9 0.0 3.2 0.00 0.76 0.76 95 1009.6
20260509234554 11 109 0.0 3.2 0.00 0.76 0.76 94 1009.7
20260509234025 11 19 0.0 3.2 0.00 0.76 0.76 94 1009.8
20260509233528 11 15 0.0 4.8 0.00 0.76 0.76 94 1009.8
20260509233047 11 11 1.6 4.8 0.03 0.76 0.76 94 1009.7
20260509232528 11 87 1.6 4.8 0.03 0.76 0.76 94 1009.6
20260509232025 11 129 1.6 4.8 0.03 0.76 0.76 94 1009.7
20260509231545 11 139 0.0 3.2 0.03 0.76 0.76 94 1009.6
20260509231025 11 0 1.6 4.8 0.03 0.76 0.76 94 1009.6
20260509230528 11 160 0.0 4.8 0.03 0.76 0.76 94 1009.7
20260509230040 11 160 0.0 4.8 0.03 0.76 0.76 94 1009.7
20260509225525 11 0 0.0 3.2 0.05 0.76 0.76 94 1009.8
20260509225024 11 82 0.0 3.2 0.05 0.76 0.76 94 1009.7
20260509224541 11 0 0.0 3.2 0.05 0.76 0.76 94 1009.8
20260509224026 11 28 0.0 3.2 0.05 0.76 0.76 94 1009.8
20260509223529 11 348 0.0 3.2 0.05 0.76 0.76 94 1009.8
20260509223036 11 119 0.0 3.2 0.05 0.74 0.74 94 1009.9
20260509222525 11 68 1.6 3.2 0.08 0.74 0.74 94 1010.0
20260509222024 11 157 1.6 3.2 0.10 0.74 0.74 94 1010.1
20260509221545 11 90 0.0 3.2 0.13 0.74 0.74 94 1010.1
20260509221024 11 101 1.6 3.2 0.18 0.74 0.74 94 1010.2
20260509220525 11 120 1.6 3.2 0.23 0.74 0.74 94 1010.1
20260509220041 11 147 1.6 3.2 0.25 0.74 0.74 94 1010.3
20260509215524 11 109 1.6 3.2 0.23 0.71 0.71 94 1010.3
20260509215027 11 0 0.0 3.2 0.25 0.71 0.71 93 1010.4
20260509214544 11 82 0.0 3.2 0.25 0.71 0.71 93 1010.3
20260509214023 11 0 0.0 3.2 0.28 0.71 0.71 93 1010.5
20260509213524 11 74 0.0 3.2 0.30 0.71 0.71 93 1010.3
20260509213043 11 0 0.0 3.2 0.28 0.69 0.69 92 1010.3
20260509212524 11 55 1.6 3.2 0.28 0.66 0.66 91 1010.3
20260509212024 11 73 0.0 3.2 0.23 0.61 0.61 91 1010.7
20260509211542 11 343 0.0 3.2 0.20 0.58 0.58 91 1010.6
20260509211024 11 327 0.0 3.2 0.15 0.53 0.53 92 1010.9
20260509210524 12 0 0.0 3.2 0.13 0.51 0.51 91 1010.6
20260509210046 12 0 0.0 3.2 0.13 0.48 0.48 91 1010.4
20260509205524 12 279 0.0 4.8 0.13 0.48 0.48 92 1010.5
20260509205025 12 282 1.6 4.8 0.10 0.46 0.46 92 1010.6
20260509204552 12 82 1.6 4.8 0.10 0.46 0.46 93 1010.3
20260509204025 12 0 0.0 3.2 0.10 0.43 0.43 93 1010.4
20260509203524 12 65 0.0 3.2 0.08 0.41 0.41 93 1010.4
20260509203044 12 65 0.0 3.2 0.10 0.41 0.41 93 1010.4
20260509202524 12 0 0.0 3.2 0.08 0.38 0.38 92 1010.5
20260509202026 12 65 1.6 3.2 0.10 0.38 0.38 92 1010.5
20260509201547 12 65 0.0 3.2 0.13 0.38 0.38 92 1010.6
20260509201024 12 65 0.0 3.2 0.23 0.38 0.38 92 1010.7
20260509200527 12 62 0.0 3.2 0.23 0.36 0.36 92 1010.8
20260509200057 12 0 0.0 3.2 0.25 0.36 0.36 91 1010.9
20260509195526 12 49 0.0 3.2 0.25 0.36 0.36 92 1010.8
20260509195025 12 0 1.6 3.2 0.28 0.36 0.36 91 1010.8
20260509194539 12 81 1.6 3.2 0.28 0.36 0.36 92 1010.9
20260509194022 12 0 0.0 3.2 0.25 0.33 0.33 91 1011.0
20260509193524 12 0 1.6 4.8 0.25 0.33 0.33 92 1011.1
20260509193045 12 292 1.6 4.8 0.23 0.30 0.30 92 1011.2